KT5AL Weather Reports


Display with metric or nautical units.
time (UTC)temp
F
wind
direction
speed
MPH
gust
MPH
rain 1hr
in
rain 24hr
in
rain mn
in
humidity
%
barometer
mb
20260510175507 69 67 11.0 14.0 0.00 0.01 0.01 94 1016.5
20260510175006 68 67 13.0 14.0 0.00 0.01 0.01 94 1016.5
20260510174508 68 67 13.0 17.0 0.00 0.01 0.01 95 1016.5
20260510174007 67 67 12.0 17.0 0.00 0.01 0.01 96 1016.5
20260510173504 68 67 14.0 19.0 0.00 0.01 0.01 96 1016.8
20260510173007 67 67 15.0 18.0 0.00 0.01 0.01 98 1016.8
20260510172506 66 67 15.0 18.0 0.00 0.01 0.01 99 1017.1
20260510172008 66 67 14.0 18.0 0.00 0.01 0.01 100 1017.1
20260510171506 66 67 11.0 17.0 0.00 0.01 0.01 100 1017.8
20260510171003 65 67 12.0 14.0 0.00 0.01 0.01 100 1017.8
20260510170532 64 67 15.0 18.0 0.00 0.01 0.01 100 1018.2
20260510170002 64 67 13.0 18.0 0.00 0.01 0.01 100 1018.2
20260510165506 63 67 15.0 21.0 0.00 0.01 0.01 100 1018.2
20260510165003 63 67 14.0 19.0 0.00 0.01 0.01 100 1018.2
20260510164506 63 22 14.0 21.0 0.00 0.01 0.01 100 1017.8
20260510164003 63 67 14.0 19.0 0.00 0.01 0.01 100 1017.8
20260510163506 63 67 14.0 23.0 0.00 0.00 0.00 100 1018.2
20260510163003 63 22 13.0 19.0 0.00 0.00 0.00 100 1018.2
20260510162506 63 22 15.0 22.0 0.00 0.00 0.00 100 1017.8
20260510162003 63 22 16.0 22.0 0.00 0.00 0.00 100 1017.8
20260510161506 64 22 17.0 28.0 0.00 0.00 0.00 100 1017.5
20260510161006 65 360 18.0 26.0 0.00 0.00 0.00 96 1017.5
20260510160504 66 22 14.0 19.0 0.00 0.00 0.00 90 1016.1
20260510160006 66 22 9.0 13.0 0.00 0.00 0.00 85 1016.1
20260510155503 68 360 17.0 23.0 0.00 0.00 0.00 80 1014.4
20260510155006 71 315 19.0 27.0 0.00 0.00 0.00 68 1014.4
20260510154503 75 90 3.0 6.0 0.00 0.00 0.00 65 1012.7
20260510154006 76 157 8.0 9.0 0.00 0.00 0.00 64 1012.7
20260510153503 76 180 9.0 13.0 0.00 0.00 0.00 64 1012.1
20260510153006 77 157 12.0 17.0 0.00 0.00 0.00 63 1012.1
20260510152503 76 157 10.0 15.0 0.00 0.00 0.00 62 1011.7
20260510152007 76 202 8.0 12.0 0.00 0.00 0.00 64 1011.7
20260510151504 75 157 12.0 17.0 0.00 0.00 0.00 63 1012.1
20260510151004 75 157 16.0 20.0 0.00 0.00 0.00 65 1012.1
20260510150508 75 180 14.0 21.0 0.00 0.00 0.00 68 1012.1
20260510150031 74 157 10.0 15.0 0.00 0.00 0.00 66 1012.1
20260510145507 74 135 14.0 19.0 0.00 0.00 0.00 69 1012.4
20260510145004 74 157 14.0 17.0 0.00 0.00 0.00 68 1012.4
20260510144502 74 135 14.0 19.0 0.00 0.00 0.00 69 1012.4
20260510144005 73 180 12.0 16.0 0.00 0.00 0.00 70 1012.4
20260510143503 73 135 12.0 19.0 0.00 0.00 0.00 70 1012.7
20260510143006 73 157 11.0 17.0 0.00 0.00 0.00 71 1012.7
20260510142504 73 157 12.0 18.0 0.00 0.00 0.00 71 1013.1
20260510142009 72 112 11.0 16.0 0.00 0.00 0.00 73 1013.1
20260510141504 72 157 9.0 11.0 0.00 0.00 0.00 75 1013.4
20260510141007 71 157 16.0 20.0 0.00 0.00 0.00 76 1013.4
20260510140504 71 157 10.0 16.0 0.00 0.00 0.00 78 1013.8
20260510140007 70 90 9.0 13.0 0.00 0.00 0.00 82 1013.8
20260510135505 70 112 8.0 14.0 0.00 0.00 0.00 82 1013.8
20260510135008 70 112 11.0 18.0 0.00 0.00 0.00 83 1013.8
20260510134505 70 112 10.0 13.0 0.00 0.00 0.00 85 1014.4
20260510134007 70 157 8.0 13.0 0.00 0.00 0.00 88 1014.4
20260510133504 69 112 9.0 14.0 0.00 0.00 0.00 88 1014.8
20260510133007 69 112 9.0 15.0 0.00 0.00 0.00 88 1014.8
20260510132504 68 112 10.0 16.0 0.00 0.00 0.00 90 1014.8
20260510132007 68 157 7.0 10.0 0.00 0.00 0.00 90 1014.8
20260510131505 68 157 8.0 11.0 0.00 0.00 0.00 90 1014.8
20260510131002 68 135 8.0 11.0 0.00 0.00 0.00 91 1014.8
20260510130505 68 112 7.0 10.0 0.00 0.00 0.00 91 1015.1
20260510130003 68 135 7.0 9.0 0.00 0.00 0.00 91 1015.1
20260510125532 68 180 8.0 11.0 0.00 0.00 0.00 91 1014.8
20260510125003 68 112 7.0 10.0 0.00 0.00 0.00 92 1014.8
20260510124007 67 112 8.0 11.0 0.00 0.00 0.00 93 1014.8
20260510123504 67 112 8.0 9.0 0.00 0.00 0.00 94 1014.8
20260510123007 67 135 7.0 10.0 0.00 0.00 0.00 94 1014.8
20260510122504 67 112 7.0 11.0 0.00 0.00 0.00 94 1014.4
20260510121502 66 112 9.0 12.0 0.00 0.00 0.00 95 1014.4
20260510121005 66 112 9.0 12.0 0.00 0.00 0.00 95 1014.4
20260510120502 66 112 8.0 12.0 0.00 0.00 0.00 95 1014.4
20260510120005 66 157 7.0 9.0 0.00 0.00 0.00 95 1014.4
20260510115503 66 112 9.0 12.0 0.00 0.00 0.00 95 1014.4
20260510115005 66 112 9.0 12.0 0.00 0.00 0.00 95 1014.4
20260510114509 66 112 10.0 12.0 0.00 0.00 0.00 95 1014.4
20260510114005 66 112 10.0 12.0 0.00 0.00 0.00 95 1014.4
20260510113508 66 135 8.0 10.0 0.00 0.00 0.00 95 1014.4
20260510113004 66 112 10.0 11.0 0.00 0.00 0.00 95 1014.4
20260510112507 66 112 9.0 12.0 0.00 0.00 0.00 95 1014.4
20260510112004 66 112 9.0 13.0 0.00 0.00 0.00 95 1014.4
20260510111507 66 112 10.0 13.0 0.00 0.00 0.00 95 1014.4
20260510111004 66 90 9.0 11.0 0.00 0.00 0.00 95 1014.4
20260510110002 66 112 12.0 15.0 0.00 0.00 0.00 95 1014.4
20260510105505 66 90 13.0 17.0 0.00 0.00 0.00 95 1014.4
20260510105046 66 90 10.0 13.0 0.00 0.00 0.00 95 1014.4
20260510104507 66 112 12.0 15.0 0.00 0.00 0.00 95 1014.4
20260510104004 66 90 11.0 15.0 0.00 0.00 0.00 95 1014.4
20260510103509 66 90 8.0 12.0 0.00 0.00 0.00 96 1014.1
20260510103004 66 112 10.0 13.0 0.00 0.00 0.00 96 1014.1
20260510102507 66 90 12.0 16.0 0.00 0.00 0.00 96 1013.8
20260510102004 66 67 12.0 18.0 0.00 0.00 0.00 97 1013.8
20260510101507 66 112 10.0 13.0 0.00 0.00 0.00 97 1014.1
20260510100505 66 90 9.0 10.0 0.00 0.00 0.00 96 1013.8
20260510100003 66 67 8.0 11.0 0.00 0.00 0.00 95 1013.8
20260510095505 66 67 12.0 18.0 0.00 0.00 0.00 94 1013.8
20260510095002 66 67 11.0 14.0 0.00 0.00 0.00 93 1013.8
20260510094505 66 67 10.0 13.0 0.00 0.00 0.00 93 1013.8
20260510094008 66 67 11.0 16.0 0.00 0.00 0.00 91 1013.8
20260510093507 66 67 16.0 19.0 0.00 0.00 0.00 91 1013.4
20260510093004 67 67 16.0 25.0 0.00 0.00 0.00 91 1013.4
20260510092507 67 67 19.0 27.0 0.00 0.00 0.00 89 1013.1
20260510092004 68 67 17.0 23.0 0.00 0.00 0.00 86 1013.1
20260510091507 69 67 13.0 19.0 0.00 0.00 0.00 86 1012.4
20260510091004 70 67 14.0 20.0 0.00 0.00 0.00 86 1012.4
20260510090507 71 45 13.0 17.0 0.00 0.00 0.00 86 1012.4
20260510090004 71 67 15.0 20.0 0.00 0.00 0.00 85 1012.4
20260510085507 71 67 13.0 18.0 0.00 0.00 0.00 84 1011.4
20260510085005 71 45 13.0 16.0 0.00 0.00 0.00 81 1011.4
20260510084533 72 45 11.0 15.0 0.00 0.00 0.00 81 1011.0
20260510084004 72 67 11.0 14.0 0.00 0.00 0.00 82 1011.0
20260510083507 72 67 10.0 14.0 0.00 0.00 0.00 84 1011.7
20260510082506 72 22 13.0 19.0 0.00 0.00 0.00 89 1011.7
20260510082008 72 22 11.0 15.0 0.00 0.00 0.00 91 1011.7
20260510081505 72 22 14.0 20.0 0.00 0.00 0.00 93 1011.7
20260510081002 72 22 11.0 15.0 0.00 0.00 0.00 96 1011.7
20260510080505 72 22 14.0 19.0 0.00 0.00 0.00 96 1011.7
20260510080002 73 337 12.0 21.0 0.00 0.00 0.00 97 1011.7
20260510075505 73 22 9.0 15.0 0.00 0.00 0.00 97 1012.4
20260510075004 73 22 10.0 16.0 0.00 0.00 0.00 96 1012.4
20260510074507 73 22 10.0 18.0 0.00 0.00 0.00 95 1011.7
20260510074004 73 360 10.0 17.0 0.00 0.00 0.00 94 1011.7
20260510073507 74 22 9.0 11.0 0.00 0.00 0.00 94 1010.7
20260510073004 74 67 7.0 9.0 0.00 0.00 0.00 92 1010.7
20260510072507 74 67 10.0 12.0 0.00 0.00 0.00 91 1010.4
20260510072007 73 67 10.0 12.0 0.00 0.00 0.00 89 1010.4
20260510071504 73 67 7.0 8.0 0.00 0.00 0.00 85 1009.7
20260510071005 74 67 6.0 9.0 0.00 0.00 0.00 82 1009.7
20260510070502 74 90 5.0 6.0 0.00 0.00 0.00 80 1009.7
20260510070005 74 67 6.0 7.0 0.00 0.00 0.00 79 1009.7
20260510065502 75 90 5.0 7.0 0.00 0.00 0.00 78 1009.4
20260510064507 75 112 5.0 7.0 0.00 0.00 0.00 75 1009.4
20260510064030 75 90 6.0 7.0 0.00 0.00 0.00 75 1009.4
20260510063506 76 90 6.0 7.0 0.00 0.00 0.00 74 1009.0
20260510063003 76 112 10.0 12.0 0.00 0.00 0.00 74 1009.0
20260510062506 76 90 12.0 17.0 0.00 0.00 0.00 74 1009.0
20260510062003 76 90 14.0 18.0 0.00 0.00 0.00 72 1009.0
20260510061007 76 112 14.0 18.0 0.00 0.00 0.00 72 1009.0
20260510060502 76 67 19.0 24.0 0.00 0.00 0.00 72 1011.0
20260510060006 76 67 13.0 18.0 0.00 0.00 0.00 72 1011.0
20260510055502 76 45 12.0 16.0 0.00 0.00 0.00 73 1011.7
20260510055005 76 360 15.0 24.0 0.00 0.00 0.00 74 1011.7
20260510054502 75 22 12.0 18.0 0.00 0.00 0.00 76 1011.7
20260510054005 75 45 14.0 18.0 0.00 0.00 0.00 79 1011.7
20260510053502 73 22 10.0 16.0 0.00 0.00 0.00 83 1011.0
20260510053005 73 22 14.0 25.0 0.00 0.00 0.00 84 1011.0
20260510052502 73 337 15.0 21.0 0.00 0.00 0.00 82 1009.0
20260510051505 73 112 6.0 8.0 0.00 0.00 0.00 79 1008.7
20260510051002 73 112 6.0 8.0 0.00 0.00 0.00 79 1008.7
20260510050505 73 112 8.0 10.0 0.00 0.00 0.00 79 1008.7
20260510050008 73 112 8.0 10.0 0.00 0.00 0.00 80 1008.7
20260510045506 73 112 6.0 9.0 0.00 0.00 0.00 80 1008.7
20260510045003 73 135 5.0 7.0 0.00 0.00 0.00 80 1008.7
20260510044503 73 112 6.0 8.0 0.00 0.00 0.00 80 1008.3
20260510044007 73 112 6.0 8.0 0.00 0.00 0.00 80 1008.3
20260510043541 73 112 8.0 10.0 0.00 0.00 0.00 81 1008.0
20260510043006 73 112 8.0 10.0 0.00 0.00 0.00 81 1008.0
20260510042503 73 135 6.0 10.0 0.00 0.00 0.00 82 1008.0
20260510042006 73 112 8.0 10.0 0.00 0.00 0.00 82 1008.0
20260510041503 73 112 8.0 10.0 0.00 0.00 0.00 81 1008.0
20260510041006 73 135 7.0 10.0 0.00 0.00 0.00 80 1008.0
20260510040503 73 157 7.0 10.0 0.00 0.00 0.00 78 1008.0
20260510040006 74 157 6.0 10.0 0.00 0.00 0.00 75 1008.0
20260510035503 74 135 6.0 10.0 0.00 0.00 0.00 73 1008.0
20260510035007 75 180 6.0 9.0 0.00 0.00 0.00 72 1008.0
20260510034504 75 135 6.0 8.0 0.00 0.00 0.00 70 1008.0
20260510034007 76 135 7.0 10.0 0.00 0.00 0.00 71 1008.0
20260510033504 76 157 9.0 11.0 0.00 0.00 0.00 70 1007.7
20260510033007 76 112 9.0 12.0 0.00 0.00 0.00 69 1007.7
20260510032504 76 112 9.0 11.0 0.00 0.00 0.00 68 1007.7
20260510032007 77 112 9.0 14.0 0.00 0.00 0.00 67 1007.7
20260510031504 77 112 9.0 10.0 0.00 0.00 0.00 67 1007.7
20260510031007 77 135 9.0 12.0 0.00 0.00 0.00 66 1007.7
20260510030505 77 112 11.0 15.0 0.00 0.00 0.00 65 1007.7
20260510030009 77 112 8.0 12.0 0.00 0.00 0.00 64 1007.7
20260510025505 77 112 6.0 9.0 0.00 0.00 0.00 64 1007.7
20260510025008 77 112 7.0 10.0 0.00 0.00 0.00 63 1007.7
20260510024505 77 112 8.0 10.0 0.00 0.00 0.00 63 1007.7
20260510024008 78 112 8.0 11.0 0.00 0.00 0.00 63 1007.7
20260510023506 78 90 9.0 11.0 0.00 0.00 0.00 63 1007.3
20260510022505 78 112 9.0 11.0 0.00 0.00 0.00 63 1007.3
20260510022007 78 112 9.0 11.0 0.00 0.00 0.00 63 1007.3
20260510021504 78 90 10.0 13.0 0.00 0.00 0.00 63 1007.3
20260510021007 78 90 9.0 11.0 0.00 0.00 0.00 64 1007.3
20260510020504 78 90 9.0 12.0 0.00 0.00 0.00 64 1007.0
20260510020007 79 90 9.0 12.0 0.00 0.00 0.00 64 1007.0
20260510015504 79 90 10.0 12.0 0.00 0.00 0.00 65 1007.0
20260510015007 79 90 9.0 12.0 0.00 0.00 0.00 66 1007.0
20260510014504 79 90 10.0 12.0 0.00 0.00 0.00 66 1006.6
20260510014005 79 90 9.0 11.0 0.00 0.00 0.00 66 1006.6
20260510012509 80 67 7.0 11.0 0.00 0.00 0.00 64 1006.0
20260510012006 80 90 8.0 11.0 0.00 0.00 0.00 64 1006.0
20260510011504 80 90 9.0 11.0 0.00 0.00 0.00 65 1005.6
20260510011007 81 112 7.0 9.0 0.00 0.00 0.00 64 1005.6
20260510010504 81 112 6.0 8.0 0.00 0.00 0.00 64 1005.3
20260510010008 82 90 7.0 9.0 0.00 0.00 0.00 62 1005.3
20260510005505 82 90 9.0 13.0 0.00 0.00 0.00 61 1004.9
20260510005010 83 90 7.0 10.0 0.00 0.00 0.00 57 1004.9
20260510004505 83 112 8.0 11.0 0.00 0.00 0.00 54 1004.6
20260510004008 84 135 7.0 10.0 0.00 0.00 0.00 51 1004.6
20260510003505 85 157 5.0 9.0 0.00 0.00 0.00 50 1004.6
20260510003005 85 135 5.0 6.0 0.00 0.00 0.00 48 1004.6
20260510002541 86 135 5.0 7.0 0.00 0.00 0.00 47 1004.6
20260510002005 86 157 6.0 8.0 0.00 0.00 0.00 46 1004.6
20260510001509 86 157 5.0 7.0 0.00 0.00 0.00 46 1004.3
20260510000507 86 157 6.0 8.0 0.00 0.00 0.00 46 1004.6
20260510000004 87 157 7.0 10.0 0.00 0.00 0.00 45 1004.6
20260509235009 87 157 9.0 10.0 0.00 0.00 0.00 44 1004.3
20260509234505 87 135 9.0 11.0 0.00 0.00 0.00 43 1004.3
20260509234008 87 157 6.0 9.0 0.00 0.00 0.00 45 1004.3
20260509233506 87 157 8.0 11.0 0.00 0.00 0.00 46 1004.3
20260509233009 87 157 8.0 10.0 0.00 0.00 0.00 45 1004.3
20260509232504 88 157 6.0 10.0 0.00 0.00 0.00 44 1003.9
20260509232007 88 157 7.0 9.0 0.00 0.00 0.00 44 1003.9
20260509231504 87 90 7.0 10.0 0.00 0.00 0.00 45 1003.9
20260509231007 87 90 8.0 10.0 0.00 0.00 0.00 43 1003.9
20260509230006 86 45 5.0 7.0 0.00 0.00 0.00 42 1003.9
20260509225505 88 67 7.0 9.0 0.00 0.00 0.00 41 1003.9
20260509225008 87 360 2.0 3.0 0.00 0.00 0.00 41 1003.9
20260509224505 87 112 5.0 10.0 0.00 0.00 0.00 42 1003.9
20260509224008 87 45 3.0 5.0 0.00 0.00 0.00 41 1003.9
20260509223505 87 22 3.0 4.0 0.00 0.00 0.00 41 1003.6
20260509223009 87 67 7.0 9.0 0.00 0.00 0.00 40 1003.6
20260509222505 88 360 4.0 5.0 0.00 0.00 0.00 40 1003.9
20260509222036 88 135 2.0 5.0 0.00 0.00 0.00 41 1003.9
20260509221505 88 112 6.0 9.0 0.00 0.00 0.00 41 1003.9
20260509221008 88 337 2.0 3.0 0.00 0.00 0.00 42 1003.9
20260509220505 88 360 6.0 7.0 0.00 0.00 0.00 41 1003.9
20260509220008 89 22 0.0 4.0 0.00 0.00 0.00 41 1003.9
20260509215505 88 135 5.0 7.0 0.00 0.00 0.00 44 1003.9
20260509215008 87 22 3.0 5.0 0.00 0.00 0.00 44 1003.9
20260509214006 86 22 3.0 4.0 0.00 0.00 0.00 44 1004.3
20260509213503 86 360 2.0 7.0 0.00 0.00 0.00 46 1004.3
20260509213007 86 360 5.0 7.0 0.00 0.00 0.00 47 1004.3
20260509212503 86 67 7.0 8.0 0.00 0.00 0.00 47 1004.3
20260509211507 86 67 6.0 9.0 0.00 0.00 0.00 47 1004.6
20260509211004 86 90 4.0 5.0 0.00 0.00 0.00 48 1004.6
20260509210507 85 22 5.0 7.0 0.00 0.00 0.00 50 1004.6
20260509210005 85 22 8.0 9.0 0.00 0.00 0.00 49 1004.6
20260509205508 86 45 7.0 9.0 0.00 0.00 0.00 48 1004.9
20260509205005 86 67 5.0 7.0 0.00 0.00 0.00 50 1004.9
20260509204508 87 67 11.0 13.0 0.00 0.00 0.00 47 1005.3
20260509204005 87 157 5.0 7.0 0.00 0.00 0.00 49 1005.3
20260509203508 86 112 7.0 9.0 0.00 0.00 0.00 51 1005.3
20260509203006 85 90 7.0 11.0 0.00 0.00 0.00 49 1005.3
20260509202508 86 67 6.0 9.0 0.00 0.00 0.00 50 1005.3
20260509202006 85 112 7.0 10.0 0.00 0.00 0.00 50 1005.3
20260509201009 85 22 9.0 12.0 0.00 0.00 0.00 51 1005.6
20260509200503 85 90 6.0 7.0 0.00 0.00 0.00 53 1005.6
20260509195507 85 45 7.0 9.0 0.00 0.00 0.00 54 1006.0
20260509195004 84 360 6.0 7.0 0.00 0.00 0.00 52 1006.0
20260509194507 84 22 9.0 10.0 0.00 0.00 0.00 51 1006.0
20260509194004 84 67 5.0 7.0 0.00 0.00 0.00 54 1006.0
20260509193503 84 67 7.0 9.0 0.00 0.00 0.00 55 1006.0
20260509193006 85 22 5.0 7.0 0.00 0.00 0.00 54 1006.0
20260509192509 84 360 4.0 6.0 0.00 0.00 0.00 54 1006.3
20260509191534 84 337 6.0 7.0 0.00 0.00 0.00 54 1006.3
20260509191004 83 315 5.0 6.0 0.00 0.00 0.00 54 1006.3
20260509190507 83 315 3.0 5.0 0.00 0.00 0.00 53 1006.6
20260509190007 83 22 5.0 7.0 0.00 0.00 0.00 54 1006.6
20260509185504 83 337 7.0 9.0 0.00 0.00 0.00 57 1006.6
20260509185007 83 45 4.0 6.0 0.00 0.00 0.00 56 1006.6
20260509184504 84 45 6.0 9.0 0.00 0.00 0.00 56 1006.6
20260509184007 84 22 4.0 6.0 0.00 0.00 0.00 56 1006.6
20260509183504 83 45 6.0 9.0 0.00 0.00 0.00 57 1007.0
20260509183007 82 337 2.0 5.0 0.00 0.00 0.00 58 1007.0
20260509182504 82 22 7.0 10.0 0.00 0.00 0.00 61 1007.0
20260509182007 82 337 5.0 7.0 0.00 0.00 0.00 61 1007.0
20260509181504 82 337 4.0 9.0 0.00 0.00 0.00 62 1007.0
20260509181008 82 22 5.0 7.0 0.00 0.00 0.00 62 1007.0
20260509180505 82 45 9.0 10.0 0.00 0.00 0.00 61 1007.3
20260509180008 82 337 6.0 9.0 0.00 0.00 0.00 63 1007.3